• In Österreich
  • Länderverzeichnis
  • Für 7 Tage
  • Wassertemperatur
  • Satellitenkarten
  • Wetterkarte
  • News
  • Widgets
  • user-avatar
    Anmelden

    Stündliche Wetter Blizanow

    Heute, 20 August, Montag

    Zeit Temperatur Niederschläge Wind Luftdruck Luftfeuchtigkeit
    00:00 +23°C° 0 mm 2 m/S 752 mmHg 51%
    01:00 +23°C° 0 mm 2 m/S 752 mmHg 52%
    02:00 +23°C° 0 mm 2 m/S 752 mmHg 55%
    03:00 +21°C° 0 mm 2 m/S 751 mmHg 57%
    04:00 +21°C° 0 mm 2 m/S 751 mmHg 60%
    05:00 +22°C° 0 mm 3 m/S 751 mmHg 60%
    06:00 +24°C° 0 mm 3 m/S 751 mmHg 61%
    07:00 +25°C° 0 mm 3 m/S 751 mmHg 61%
    08:00 +27°C° 0 mm 4 m/S 751 mmHg 56%
    09:00 +28°C° 0 mm 4 m/S 751 mmHg 50%
    10:00 +30°C° 0 mm 5 m/S 751 mmHg 45%
    11:00 +30°C° 0 mm 5 m/S 751 mmHg 44%
    12:00 +30°C° 0 mm 5 m/S 751 mmHg 42%
    13:00 +32°C° 0 mm 6 m/S 751 mmHg 40%
    14:00 +30°C° 0 mm 6 m/S 751 mmHg 43%
    15:00 +30°C° 0 mm 6 m/S 751 mmHg 46%
    16:00 +29°C° 0 mm 6 m/S 751 mmHg 48%
    17:00 +27°C° 0 mm 5 m/S 751 mmHg 53%
    18:00 +26°C° 0 mm 4 m/S 751 mmHg 58%
    19:00 +25°C° 0 mm 4 m/S 751 mmHg 62%
    20:00 +24°C° 0 mm 3 m/S 752 mmHg 66%
    21:00 +22°C° 0 mm 3 m/S 752 mmHg 70%
    22:00 +21°C° 0 mm 2 m/S 752 mmHg 74%
    23:00 +20°C° 0 mm 2 m/S 752 mmHg 77%

    Morgen, 21 August, Dienstag

    Zeit Temperatur Niederschläge Wind Luftdruck Luftfeuchtigkeit
    00:00 +19°C° 0 mm 2 m/S 753 mmHg 81%
    01:00 +19°C° 0 mm 2 m/S 753 mmHg 84%
    02:00 +18°C° 0 mm 2 m/S 753 mmHg 85%
    03:00 +18°C° 0 mm 2 m/S 753 mmHg 86%
    04:00 +17°C° 0 mm 2 m/S 754 mmHg 87%
    05:00 +18°C° 0 mm 3 m/S 754 mmHg 81%
    06:00 +18°C° 0 mm 3 m/S 754 mmHg 75%
    07:00 +19°C° 0 mm 3 m/S 755 mmHg 69%
    08:00 +20°C° 0 mm 3 m/S 755 mmHg 63%
    09:00 +21°C° 0 mm 4 m/S 755 mmHg 57%
    10:00 +22°C° 0 mm 4 m/S 755 mmHg 51%
    11:00 +23°C° 0 mm 4 m/S 755 mmHg 46%
    12:00 +25°C° 0 mm 4 m/S 755 mmHg 42%
    13:00 +26°C° 0 mm 4 m/S 755 mmHg 38%
    14:00 +26°C° 0 mm 3 m/S 755 mmHg 37%
    15:00 +26°C° 0 mm 3 m/S 755 mmHg 37%
    16:00 +26°C° 0 mm 3 m/S 754 mmHg 36%
    17:00 +24°C° 0 mm 2 m/S 755 mmHg 40%
    18:00 +23°C° 0 mm 2 m/S 755 mmHg 45%
    19:00 +21°C° 0 mm 1 m/S 755 mmHg 49%
    20:00 +21°C° 0 mm 1 m/S 755 mmHg 51%
    21:00 +20°C° 0 mm 1 m/S 755 mmHg 53%
    22:00 +19°C° 0 mm 1 m/S 756 mmHg 55%
    23:00 +19°C° 0 mm 1 m/S 756 mmHg 58%

    übermorgen, 22 August, Mittwoch

    Zeit Temperatur Niederschläge Wind Luftdruck Luftfeuchtigkeit
    00:00 +18°C° 0 mm 1 m/S 756 mmHg 60%
    01:00 +18°C° 0 mm 1 m/S 756 mmHg 62%
    02:00 +16°C° 0 mm 1 m/S 756 mmHg 64%
    03:00 +16°C° 0 mm 2 m/S 756 mmHg 66%
    04:00 +16°C° 0 mm 2 m/S 756 mmHg 67%
    05:00 +17°C° 0 mm 2 m/S 756 mmHg 65%
    06:00 +18°C° 0 mm 2 m/S 756 mmHg 63%
    07:00 +19°C° 0 mm 2 m/S 756 mmHg 61%
    08:00 +21°C° 0 mm 2 m/S 756 mmHg 55%
    09:00 +24°C° 0 mm 3 m/S 756 mmHg 49%
    10:00 +25°C° 0 mm 3 m/S 756 mmHg 43%
    11:00 +26°C° 0 mm 3 m/S 755 mmHg 40%
    12:00 +27°C° 0 mm 3 m/S 755 mmHg 38%
    13:00 +28°C° 0 mm 3 m/S 754 mmHg 36%
    14:00 +28°C° 0 mm 3 m/S 754 mmHg 36%
    15:00 +28°C° 0 mm 3 m/S 754 mmHg 36%
    16:00 +28°C° 0 mm 2 m/S 753 mmHg 35%
    17:00 +27°C° 0 mm 2 m/S 753 mmHg 40%
    18:00 +25°C° 0 mm 2 m/S 753 mmHg 44%
    19:00 +24°C° 0 mm 2 m/S 753 mmHg 49%
    20:00 +23°C° 0 mm 2 m/S 753 mmHg 51%
    21:00 +21°C° 0 mm 3 m/S 753 mmHg 53%
    22:00 +20°C° 0 mm 3 m/S 753 mmHg 55%
    23:00 +20°C° 0 mm 3 m/S 753 mmHg 57%

    23 August, Donnerstag

    Zeit Temperatur Niederschläge Wind Luftdruck Luftfeuchtigkeit
    00:00 +19°C° 0 mm 3 m/S 753 mmHg 60%
    01:00 +19°C° 0 mm 3 m/S 752 mmHg 62%
    02:00 +19°C° 0 mm 3 m/S 752 mmHg 64%
    03:00 +18°C° 0 mm 3 m/S 752 mmHg 65%
    04:00 +18°C° 0 mm 3 m/S 752 mmHg 67%
    05:00 +19°C° 0 mm 3 m/S 752 mmHg 66%
    06:00 +20°C° 0 mm 3 m/S 752 mmHg 64%
    07:00 +21°C° 0 mm 3 m/S 751 mmHg 63%
    08:00 +24°C° 0 mm 3 m/S 751 mmHg 57%
    09:00 +26°C° 0 mm 3 m/S 751 mmHg 50%
    10:00 +29°C° 0 mm 3 m/S 751 mmHg 44%
    11:00 +30°C° 0 mm 3 m/S 750 mmHg 41%
    12:00 +31°C° 0 mm 3 m/S 750 mmHg 39%
    13:00 +33°C° 0 mm 3 m/S 750 mmHg 36%
    14:00 +33°C° 0 mm 3 m/S 749 mmHg 37%
    15:00 +33°C° 0 mm 3 m/S 749 mmHg 38%
    16:00 +33°C° 0 mm 3 m/S 748 mmHg 39%
    17:00 +30°C° 0,2 mm 3 m/S 748 mmHg 43%
    18:00 +29°C° 0,2 mm 3 m/S 748 mmHg 48%
    19:00 +28°C° 0,2 mm 3 m/S 748 mmHg 53%
    20:00 +26°C° 2 mm 3 m/S 748 mmHg 58%
    21:00 +25°C° 2 mm 3 m/S 747 mmHg 64%
    22:00 +24°C° 2 mm 3 m/S 747 mmHg 70%
    23:00 +24°C° 0,5 mm 3 m/S 747 mmHg 71%

    24 August, Freitag

    Zeit Temperatur Niederschläge Wind Luftdruck Luftfeuchtigkeit
    00:00 +24°C° 0,5 mm 3 m/S 747 mmHg 71%
    01:00 +24°C° 0,5 mm 3 m/S 747 mmHg 72%
    02:00 +22°C° 0,4 mm 3 m/S 746 mmHg 74%
    03:00 +22°C° 0,4 mm 3 m/S 746 mmHg 76%
    04:00 +22°C° 0,4 mm 3 m/S 746 mmHg 77%
    05:00 +22°C° 0,3 mm 3 m/S 746 mmHg 76%
    06:00 +24°C° 0,3 mm 3 m/S 746 mmHg 74%
    07:00 +24°C° 0,3 mm 3 m/S 745 mmHg 72%
    08:00 +26°C° 0 mm 3 m/S 746 mmHg 67%
    09:00 +27°C° 0 mm 3 m/S 746 mmHg 62%
    10:00 +29°C° 0 mm 3 m/S 746 mmHg 56%
    11:00 +30°C° 0,1 mm 4 m/S 745 mmHg 52%
    12:00 +32°C° 0,1 mm 4 m/S 745 mmHg 48%
    13:00 +32°C° 0,1 mm 4 m/S 745 mmHg 44%
    14:00 +30°C° 0 mm 4 m/S 745 mmHg 47%
    15:00 +30°C° 0 mm 4 m/S 745 mmHg 50%
    16:00 +29°C° 0 mm 3 m/S 745 mmHg 53%
    17:00 +27°C° 0,8 mm 4 m/S 745 mmHg 61%
    18:00 +25°C° 0,8 mm 4 m/S 745 mmHg 69%
    19:00 +22°C° 0,8 mm 5 m/S 745 mmHg 77%
    20:00 +21°C° 0,3 mm 4 m/S 746 mmHg 80%
    21:00 +21°C° 0,3 mm 3 m/S 746 mmHg 83%
    22:00 +20°C° 0,3 mm 2 m/S 747 mmHg 87%
    23:00 +20°C° 0,1 mm 2 m/S 747 mmHg 87%

    25 August, Samstag

    Zeit Temperatur Niederschläge Wind Luftdruck Luftfeuchtigkeit
    00:00 +19°C° 0,1 mm 3 m/S 747 mmHg 87%
    01:00 +19°C° 0,1 mm 3 m/S 748 mmHg 88%
    02:00 +19°C° 0,2 mm 3 m/S 748 mmHg 88%
    03:00 +18°C° 0,2 mm 4 m/S 748 mmHg 88%
    04:00 +18°C° 0,2 mm 4 m/S 748 mmHg 88%
    05:00 +17°C° 0,3 mm 4 m/S 749 mmHg 87%
    06:00 +16°C° 0,3 mm 5 m/S 749 mmHg 86%
    07:00 +16°C° 0,3 mm 5 m/S 749 mmHg 85%
    08:00 +15°C° 0,7 mm 5 m/S 749 mmHg 84%
    09:00 +15°C° 0,7 mm 5 m/S 749 mmHg 83%
    10:00 +15°C° 0,7 mm 4 m/S 749 mmHg 82%
    11:00 +14°C° 1,5 mm 5 m/S 749 mmHg 83%
    12:00 +14°C° 1,5 mm 5 m/S 749 mmHg 84%
    13:00 +13°C° 1,5 mm 6 m/S 749 mmHg 85%
    14:00 +13°C° 0,9 mm 6 m/S 749 mmHg 84%
    15:00 +13°C° 0,9 mm 6 m/S 749 mmHg 83%
    16:00 +11°C° 0,9 mm 6 m/S 749 mmHg 83%
    17:00 +12°C° 1,8 mm 5 m/S 749 mmHg 84%
    18:00 +12°C° 1,8 mm 5 m/S 749 mmHg 86%
    19:00 +10°C° 1,8 mm 5 m/S 749 mmHg 87%
    20:00 +11°C° 0,4 mm 4 m/S 750 mmHg 87%
    21:00 +11°C° 0,4 mm 4 m/S 750 mmHg 87%
    22:00 +11°C° 0,4 mm 4 m/S 750 mmHg 87%
    23:00 +11°C° 0 mm 3 m/S 750 mmHg 87%
    Mehr zeigen